Weather Roundup
Issued by NWS Chicago, IL

Home | Current Version | Previous Version | Text Only | Print | Product List | Glossary Off
Versions: 1 2 3 4 5 6 7 8 9 10 11 12 13 14 15 16 17 18 19 20 21 22 23 24 25 26 27 28 29 30 31 32 33 34 35 36 37 38 39 40 41 42 43 44 45 46 47 48 49 50

000
NZUS59 KLOT 231512
HRRLOT

CHICAGO AREA WEATHER ROUNDUP
NATIONAL WEATHER SERVICE CHICAGO/ROMEOVILLE IL
1000 AM CDT SAT MAY 23 2015

NOTE: "FAIR" INDICATES FEW OR NO CLOUDS BELOW 12,000 FEET WITH NO
SIGNIFICANT WEATHER AND/OR OBSTRUCTIONS TO VISIBILITY.

* THESE STATIONS ARE NOT UNDER NWS QUALITY CONTROL. THEY ALSO MAY NOT
  REPORT WEATHER SUCH AS PRECIPITATION OR FOG.

ILZ005-006-012>014-019>023-231600-
NORTHEAST ILLINOIS

CITY           SKY/WX    TMP DP  RH WIND       PRES   REMARKS
OHARE          MOSUNNY   68  37  32 SE9       30.34S
MIDWAY         MOSUNNY   71  36  27 S13G22    30.34F
AURORA         SUNNY     69  41  36 S14       30.34F
LANSING*       SUNNY     68  38  33 S8        30.36S
JOLIET*        SUNNY     69  46  42 SE6       30.34F
WAUKEGAN       SUNNY     66  39  37 SE9       30.34S
DUPAGE AIRPORT SUNNY     68  41  37 S12       30.33F
WHEELING       SUNNY     69  36  29 S12       30.35F
KANKAKEE*      SUNNY     70  49  47 SE10      30.35F
MORRIS*        SUNNY     70  43  37 SE9       30.32S
LEWIS AIRPORT* SUNNY     69  40  35 S12       30.34S
NORTHERLY IS     N/A     59  45  59 E1          N/A
$$

WIZ051-052-058>065-066-070>072-231600-
SOUTHEAST WISCONSIN

CITY           SKY/WX    TMP DP  RH WIND       PRES   REMARKS
MILWAUKEE      MOSUNNY   69  34  27 S10       30.33F
KENOSHA*       SUNNY     69  39  33 S10       30.34S
RACINE*        SUNNY     68  33  27 S12       30.35F
BURLINGTON     SUNNY     68  37  31 S9G18     30.33F
WAUKESHA       MOSUNNY   66  32  28 S8        30.34F
WEST BEND      SUNNY     68  32  26 S9        30.33F
$$

INZ001>003-010>013-019-020-231600-
NORTHWEST INDIANA

CITY           SKY/WX    TMP DP  RH WIND       PRES   REMARKS
GARY*          MOSUNNY   68  39  34 S9        30.36S
MICHIGAN CITY* NOT AVBL
RENSSELAER*    NOT AVBL
VALPARAISO     MOSUNNY   70  40  33 SE7       30.36F
$$

LMZ740>746-231600-
SOUTHERN LAKE MICHIGAN

STATION/POSITION TIME  SKY/WX   TEMP WIND        PRES    VSBY
                                AIR  DIR/SP/G
                 (UTC)          (F)  (DEG/KT/KT) (MB)    (MI)
HARRISON CRIB    1400            57  150/  9/ 11   N/A
BURNHAM HARBOR   1500            59   70/  2/  4   N/A
CALUMET HARBOR   1400            66  150/  5/  7   N/A
BURNS HARBOR     1400            66  170/  9/ 12 1028.4R
MICHIGAN CITY    1400            63  130/ 12/ 14   N/A
$$

ABBREVIATIONS USED IN REMARKS
   TC - TEMPERATURE IN CELSIUS
  WCI - WIND CHILL INDEX
   HX - HEAT INDEX
  VSB - VISIBILITY
$$


USA.gov is the U.S. government's official web portal to all federal, state and local government web resources and services.